Location: Joplin, MO
(37.0842°N, 94.5133°W)
Time: 21:29:36
(UTC+02:00)

Courier 1B Rocket - Pass Details

Date: 02 April 2023
Orbit: 920 x 1202 km, 28.2° (Epoch: 05 June)

Event Time Altitude Azimuth Distance (km) Brightness Sun altitude
Rises 07:10:31 0° 259° (W) 3,799 - -44.9°
Reaches altitude 10° 07:15:17 10° 231° (SW) 2,770 - -45.3°
Maximum altitude 07:17:41 12° 209° (SSW) 2,583 - -45.5°
Drops below altitude 10° 07:20:03 10° 188° (S) 2,701 - -45.7°
Sets 07:24:34 0° 159° (SSE) 3,592 - -46.0°
